Wind_Speed
5 4 3 2 2 2 2 2 2 2 2 2 2 3 4 5 5 5 6 6 6 6 6 6 7 7 7 8 8 8 8 8 8 9 10 11 12 13 13 14 15 16 16 16 16 17 17 18 18 18 18 18 18 18 18 19 18 20 20 20 19 18 17 17 16 16 16 16 16 16 16 16 17 18 18 17 17 17 16 16 15 15 14 14 15
5 4 3 2 3 3 3 2 2 2 2 3 3 4 5 6 5 4 4 4 5 5 5 6 6 6 6 6 6 6 7 8 8 8 10 11 12 13 14 15 16 17 17 18 18 18 19 19 19 20 19 20 20 19 19 20 20 20 20 20 20 19 19 18 18 17 17 17 17 16 16 16 17 17 17 17 17 17 17 17 16 15 15 15 15
5 4 3 3 4 4 4 3 3 3 3 3 4 5 5 5 5 4 4 3 4 4 5 5 5 5 5 5 6 6 7 7 8 9 10 12 13 14 15 16 17 19 19 20 20 20 20 20 20 20 21 21 20 20 20 20 21 21 20 20 20 21 20 20 19 19 19 19 18 18 17 17 16 16 16 16 17 17 17 17 17 17 16 16 16
6 5 4 4 5 5 4 4 4 4 4 4 5 5 5 4 4 4 4 3 3 4 4 4 4 5 5 5 6 6 7 8 8 9 11 13 14 15 16 18 19 20 21 21 22 22 22 22 21 21 21 21 20 20 20 21 22 23 21 20 21 21 21 21 21 20 20 19 19 19 18 18 17 16 15 15 16 17 18 17 17 18 17 17 16
6 5 5 6 7 7 6 5 5 5 4 4 5 4 3 3 3 2 2 2 2 3 3 3 4 5 5 6 7 8 8 9 10 11 13 14 16 17 18 20 21 22 23 23 23 23 23 23 23 23 22 22 21 20 20 20 21 22 22 21 21 22 22 22 22 22 22 21 20 20 19 19 18 17 16 16 16 17 17 18 18 18 18 18 18
6 6 6 7 8 8 7 5 5 5 4 4 4 3 3 3 2 1 1 2 2 3 3 4 5 6 7 8 9 10 10 11 12 13 14 16 17 19 20 21 23 23 24 24 24 25 25 25 24 24 23 22 22 21 21 20 20 20 21 21 22 23 23 23 23 23 23 23 21 21 21 20 20 19 18 18 17 17 17 18 19 19 19 19 19
6 7 7 8 8 8 7 6 5 5 5 4 3 3 3 2 1 0 1 2 3 4 5 6 7 8 9 11 11 12 12 13 14 15 16 18 19 20 22 23 24 25 25 25 26 26 26 26 25 24 24 23 22 22 22 21 20 20 20 20 21 22 23 24 25 25 24 24 23 22 22 22 21 21 20 19 19 18 18 19 20 20 21 20 20
7 8 8 8 8 8 7 6 6 6 5 4 4 3 3 3 2 0 1 3 4 5 7 8 9 10 11 12 13 14 15 15 16 17 18 20 21 22 23 24 25 26 26 26 27 27 27 27 26 26 25 24 24 24 24 23 22 21 20 19 19 21 22 23 24 25 25 26 25 24 23 23 23 22 22 22 21 20 20 20 20 21 21 21 21
8 9 10 9 8 8 7 7 7 7 6 5 4 4 3 2 1 1 2 4 6 7 8 10 11 12 13 14 15 16 17 18 18 19 20 21 22 23 24 24 25 26 27 27 27 27 28 27 27 27 26 26 26 26 25 25 24 24 23 21 20 20 21 21 22 23 24 25 26 25 24 24 24 24 23 23 23 22 21 22 21 21 21 21 21
10 10 10 9 8 8 7 7 7 7 6 6 5 4 3 2 2 3 4 6 8 9 10 11 13 14 15 16 17 18 19 19 20 20 21 22 22 23 24 25 25 26 27 27 28 28 28 27 27 27 27 27 27 27 27 27 26 26 26 24 23 22 22 22 22 22 23 23 25 25 25 25 25 25 25 25 24 24 23 23 22 22 22 23 22
11 11 10 9 8 8 7 7 7 7 7 6 4 4 3 3 3 4 6 7 9 11 12 12 14 15 16 17 18 19 19 20 21 21 22 22 23 24 24 25 26 26 27 27 27 27 27 27 27 27 27 27 27 27 27 28 28 27 27 27 26 25 24 24 24 23 23 23 23 24 25 26 25 25 25 26 26 26 26 25 23 22 22 24 24
11 10 9 8 7 7 7 8 8 7 6 5 5 4 3 4 5 5 7 8 10 11 12 13 15 16 17 18 18 19 20 20 21 21 22 23 24 24 25 25 25 26 26 26 26 27 27 27 28 28 28 28 28 28 28 28 28 28 29 29 28 28 27 26 26 25 25 25 24 24 25 26 26 25 25 26 27 27 28 27 25 23 22 24 24
11 10 9 8 8 7 8 8 8 7 6 6 5 5 5 5 6 7 8 9 10 12 13 14 16 17 17 18 19 19 20 21 21 22 23 23 24 25 25 25 25 25 25 25 26 26 27 27 28 28 28 29 29 29 29 29 29 29 29 29 29 29 29 28 28 27 27 26 26 26 26 26 26 26 26 26 28 28 29 29 28 26 25 24 24
10 10 9 8 8 8 8 9 8 7 7 6 6 6 6 6 7 8 9 10 11 13 14 15 16 17 17 18 18 19 19 20 22 22 23 24 24 25 25 25 25 25 25 25 26 26 27 27 27 28 28 29 29 30 30 30 30 30 30 30 30 30 30 29 29 29 28 28 27 27 27 27 26 26 27 27 28 28 29 30 30 30 28 26 24
11 10 9 8 8 9 8 8 7 7 7 6 6 7 7 7 8 9 10 11 13 14 15 16 17 17 17 18 18 19 19 20 21 22 23 24 24 24 24 24 25 25 25 26 26 27 27 27 28 28 28 29 30 30 31 31 31 30 30 30 29 30 30 30 30 29 29 29 28 27 28 29 29 28 28 28 28 29 29 30 31 32 32 29 27
11 11 9 9 9 9 8 7 7 7 7 7 7 7 7 8 9 10 12 13 14 15 15 15 16 16 17 17 17 18 19 20 21 22 23 23 23 23 23 24 25 25 26 26 26 27 27 27 28 28 29 29 30 30 30 30 30 29 29 29 29 29 29 29 30 30 30 30 30 29 28 29 30 30 29 29 29 29 29 30 31 32 33 32 30
11 10 10 10 9 8 8 8 8 8 8 7 7 7 8 9 10 12 13 15 15 16 15 15 15 15 16 16 15 17 18 20 21 21 21 22 22 22 23 24 24 25 26 26 27 27 27 28 28 29 29 29 29 29 29 29 29 29 29 29 29 29 29 29 29 30 30 30 30 30 30 29 30 31 31 31 30 29 29 31 32 32 33 33 31
11 10 9 9 9 9 8 8 8 8 7 7 8 9 10 11 12 13 14 15 15 15 15 15 15 15 16 16 15 16 18 19 20 20 21 21 21 22 23 23 24 25 25 26 27 28 28 29 29 29 29 28 28 28 28 29 29 29 30 30 30 30 30 31 31 31 31 31 31 31 31 31 31 31 31 31 31 31 30 31 32 33 33 33 32
11 10 10 10 9 9 8 8 8 7 8 8 9 10 11 12 13 14 14 14 15 15 15 15 15 15 16 16 16 17 18 19 19 20 20 21 22 22 23 24 24 25 25 26 27 28 28 29 29 28 28 28 28 28 28 29 30 30 31 31 32 32 32 33 33 33 33 33 33 32 32 32 32 32 32 32 31 32 32 31 32 33 33 33 32
11 10 10 10 10 9 9 8 8 8 8 9 10 12 12 13 13 13 13 13 14 14 14 14 14 15 15 16 16 17 18 18 19 20 21 21 22 22 23 24 24 25 25 26 27 28 28 27 27 27 27 28 28 28 29 30 31 33 33 34 34 35 35 35 35 35 35 35 35 35 35 34 34 33 33 34 32 32 32 32 32 33 33 33 33
11 10 11 10 10 10 9 9 8 9 9 10 12 13 13 13 13 12 12 12 12 12 12 13 13 14 14 15 16 16 17 18 19 20 21 22 22 23 23 24 24 25 26 27 27 27 27 27 26 26 27 27 28 29 30 31 32 33 35 36 37 38 38 38 38 38 38 38 37 37 37 37 37 36 35 35 34 33 33 33 33 33 33 33 34
11 10 11 11 10 10 10 9 9 10 11 12 13 13 13 12 12 11 11 11 11 11 11 11 12 13 14 15 15 16 17 18 19 20 20 21 22 23 24 25 25 26 27 27 27 26 25 25 25 26 27 27 28 29 30 31 32 33 35 37 39 40 40 41 41 41 41 40 40 39 39 38 39 39 38 37 36 35 34 34 34 34 33 33 34
12 11 11 11 11 11 11 11 11 11 12 13 14 13 12 11 10 10 9 9 9 10 10 11 12 13 14 14 15 16 17 18 18 19 19 20 21 22 23 24 25 25 25 24 24 23 23 23 24 25 26 27 28 29 30 31 32 34 35 37 38 40 41 42 43 44 44 44 44 43 42 40 40 40 40 39 38 37 36 35 36 36 34 33 34
13 12 11 12 12 12 12 12 12 13 13 14 14 12 11 9 9 8 8 8 9 9 10 11 12 13 13 14 15 16 16 17 17 18 19 19 20 21 22 23 23 23 23 22 22 21 21 22 23 24 25 27 28 29 30 31 32 34 35 36 38 39 41 42 44 46 47 48 48 47 46 44 42 40 40 40 40 39 39 37 36 37 37 35 34
15 14 13 12 13 13 13 13 13 13 13 14 13 11 9 8 8 8 8 8 9 10 11 11 12 12 13 14 15 15 16 16 17 17 18 18 19 20 21 21 21 21 21 20 20 21 20 20 21 23 25 27 28 29 30 31 32 33 35 36 38 40 42 44 46 48 49 50 51 50 48 46 44 41 40 40 40 40 40 39 38 37 38 37 35
16 15 14 13 14 13 13 13 13 13 14 13 11 9 8 8 8 8 8 8 9 10 11 11 12 12 13 14 15 15 16 16 16 17 17 17 17 18 19 19 18 18 18 18 18 19 20 21 22 23 25 26 27 29 30 31 32 33 35 37 39 41 43 44 47 49 51 51 51 50 49 47 45 42 40 39 39 39 40 40 39 38 38 38 37
16 16 15 15 14 14 13 13 13 14 13 12 10 9 8 8 8 8 8 9 10 10 11 11 12 12 13 14 15 15 15 16 16 16 15 16 16 16 17 17 17 16 16 17 17 18 19 21 22 23 25 26 28 29 30 31 32 33 35 37 39 40 42 44 46 48 49 49 49 48 47 46 45 43 41 38 36 37 37 38 39 38 38 39 39
16 16 15 15 14 13 13 14 14 13 12 11 10 9 9 8 8 8 8 9 10 10 10 11 12 13 13 14 15 15 15 15 15 15 15 15 15 15 15 14 15 15 14 15 17 18 19 20 22 22 24 25 27 28 29 30 32 33 35 36 38 39 41 43 44 45 46 46 45 44 44 44 44 43 41 39 36 35 35 35 36 36 37 38 39
14 14 14 13 13 13 13 13 13 12 11 11 10 9 9 8 8 8 9 9 10 10 10 11 12 12 13 14 14 14 15 15 14 14 14 15 14 13 13 12 13 13 13 14 15 18 20 21 22 22 23 24 25 27 27 28 30 32 34 35 37 38 40 41 42 44 44 44 43 42 41 42 42 42 41 40 38 36 34 34 33 33 33 35 38
13 13 13 12 12 12 12 12 12 12 11 11 10 10 9 9 8 9 9 10 10 10 10 11 11 12 13 14 14 14 14 14 14 14 14 14 13 12 12 12 12 13 14 15 16 17 20 21 22 22 22 24 25 26 27 29 30 31 33 34 36 37 38 39 42 44 44 43 42 40 40 40 40 41 41 40 38 36 35 33 32 31 30 30 34
12 12 11 10 10 11 11 12 12 12 11 11 10 10 10 9 9 9 10 10 10 10 10 11 11 12 13 13 14 14 14 13 13 13 13 12 12 12 11 11 12 13 15 17 18 19 20 21 22 22 23 24 26 27 29 30 30 31 33 34 36 37 38 40 43 45 45 42 39 38 37 38 40 40 40 40 38 37 35 34 32 31 29 27 29
10 10 9 9 9 10 11 12 12 12 11 11 11 11 10 10 10 10 11 10 10 9 9 10 11 12 12 13 14 14 13 13 13 13 12 12 11 11 11 12 13 14 16 17 19 20 21 21 22 23 24 26 27 28 30 30 31 32 34 35 36 38 39 41 44 45 45 43 38 36 35 37 38 39 39 39 38 37 35 34 33 31 30 27 25
9 8 8 9 10 10 11 11 11 11 11 11 12 11 11 11 11 11 11 10 9 9 9 10 10 11 12 13 13 13 13 13 12 12 12 11 11 11 12 13 14 15 16 18 19 20 20 21 22 24 25 27 28 29 30 31 32 34 35 36 38 40 41 43 45 45 46 45 41 37 35 35 36 35 35 35 35 35 34 33 33 32 31 28 25
8 8 8 9 10 11 11 11 11 11 12 12 12 12 12 12 12 12 11 10 9 9 9 10 10 11 12 13 13 12 12 12 12 12 12 12 12 12 13 14 16 17 17 18 19 19 20 21 23 24 26 27 28 30 31 32 34 35 36 38 40 42 43 44 45 46 47 47 43 39 36 36 36 36 34 32 31 31 31 32 32 32 31 30 27
8 9 9 10 11 11 11 11 12 12 13 13 13 13 13 13 12 12 11 10 9 9 9 10 10 11 11 12 12 11 11 11 11 11 12 12 13 14 15 16 17 18 18 19 19 20 22 23 25 26 26 27 29 31 32 34 35 36 37 39 42 43 44 45 46 47 47 48 46 42 38 37 37 37 35 33 30 28 27 28 30 31 32 32 30
10 10 11 11 11 12 12 12 13 13 14 14 14 15 14 13 13 12 10 10 9 9 9 10 10 10 11 11 10 10 10 10 11 11 11 13 14 15 16 17 18 19 19 20 21 22 24 25 26 27 28 29 30 31 33 35 37 38 38 40 42 44 46 47 48 48 49 50 50 45 39 37 36 35 35 33 30 27 25 24 26 28 30 31 32
12 12 12 13 13 13 13 14 14 15 15 16 16 15 14 13 13 11 10 10 10 10 9 9 10 10 10 10 9 9 10 10 10 11 12 13 14 15 17 17 18 19 19 20 22 23 25 26 27 29 30 31 31 32 34 36 37 39 40 41 43 45 47 49 51 51 50 51 52 47 41 38 36 34 33 31 30 28 25 23 22 22 24 26 29
14 14 14 14 14 14 15 15 16 16 17 17 17 15 14 13 12 11 10 11 10 10 9 9 9 9 9 9 9 9 9 9 10 11 12 13 14 15 16 17 17 18 19 21 22 24 25 27 28 30 31 32 33 34 36 37 38 41 42 44 45 46 48 51 53 53 52 51 52 48 43 40 38 35 32 31 29 27 26 24 22 20 19 20 23
15 16 16 15 15 16 16 17 17 18 18 18 17 15 14 13 12 11 10 10 10 10 10 9 9 9 9 8 9 9 9 9 10 11 12 13 14 15 15 16 17 18 20 21 23 25 26 27 29 31 32 33 34 35 36 37 39 41 44 46 47 48 50 52 54 55 54 52 53 50 44 41 40 37 32 29 28 27 27 26 24 21 20 18 19
16 17 17 17 17 17 17 18 18 19 18 18 17 16 14 13 12 11 11 10 11 10 10 9 8 8 8 8 8 8 9 9 10 11 12 13 13 14 15 16 17 18 20 22 24 26 27 28 29 31 32 33 35 36 37 38 40 43 45 47 49 51 52 52 54 57 56 55 55 54 48 42 40 39 33 28 26 27 27 28 27 25 23 22 20
18 18 18 18 18 18 18 19 19 19 19 18 17 16 14 13 12 11 11 10 11 11 10 9 8 8 7 7 7 7 8 9 10 11 11 12 13 14 15 16 17 19 21 23 25 26 27 29 30 31 32 34 36 37 38 40 42 44 46 47 49 51 52 52 54 56 58 57 57 57 54 47 43 42 38 31 25 25 26 27 28 27 25 24 23
19 19 19 19 19 19 19 19 19 19 19 18 17 16 14 13 12 12 11 11 11 11 10 9 8 8 7 7 6 7 8 9 9 10 11 12 12 14 15 16 18 20 22 23 24 25 27 29 30 31 33 35 37 38 40 41 43 45 46 48 49 51 52 52 54 56 57 58 58 58 57 53 47 46 43 35 27 24 25 26 27 27 26 25 24
20 20 20 20 20 20 20 20 20 20 19 18 17 16 15 14 13 12 11 11 11 11 10 10 8 8 7 7 6 7 8 9 9 10 11 12 13 14 15 17 18 20 21 23 24 25 26 28 30 32 34 36 37 39 41 42 44 46 47 49 50 50 51 53 54 55 56 58 59 59 58 56 53 50 46 39 31 26 24 25 27 28 29 28 27
20 20 20 20 20 20 20 20 20 20 19 19 18 16 15 14 13 13 12 11 11 11 10 10 8 8 7 7 7 7 8 9 10 11 11 13 14 16 17 18 19 21 22 23 24 25 26 28 30 33 35 36 38 40 42 43 45 46 48 49 49 48 49 51 53 55 56 58 59 59 59 59 56 52 48 43 36 31 27 26 27 28 30 31 31
20 19 19 19 19 20 21 21 21 20 20 19 18 16 15 15 14 13 13 12 11 11 11 10 8 7 7 6 7 8 8 9 10 11 12 13 15 17 18 19 19 21 22 23 24 25 27 28 30 33 35 36 38 40 42 44 46 47 48 48 48 47 48 49 51 54 56 58 59 60 60 60 58 54 50 45 40 35 33 31 30 29 28 29 30
20 20 20 19 19 20 21 21 21 20 20 20 19 17 16 16 15 14 13 12 12 12 11 9 8 7 7 7 7 7 8 9 9 10 12 14 15 17 18 19 20 21 22 23 25 26 28 29 31 33 34 36 38 40 42 44 46 47 48 48 48 47 47 47 49 52 54 56 59 61 61 61 59 55 50 46 42 39 37 36 35 33 32 30 29
21 21 20 19 19 20 21 21 21 21 21 21 20 18 17 16 16 14 13 13 12 11 10 9 7 7 7 7 7 7 8 8 9 10 12 13 15 16 17 18 19 21 22 24 25 27 29 30 31 33 35 37 39 40 42 44 44 45 45 46 46 46 46 46 47 50 53 55 57 59 60 60 59 55 49 45 43 40 38 38 37 36 35 33 30
23 22 20 18 18 19 21 22 22 22 22 22 21 19 18 17 16 15 14 13 12 11 10 8 8 7 7 7 7 7 7 7 8 10 11 13 15 15 16 17 18 20 22 24 25 27 29 30 32 33 35 36 37 39 40 41 42 43 43 44 44 44 45 46 47 49 52 55 56 58 59 59 59 56 50 46 44 41 38 36 35 34 33 31 29
25 23 20 18 19 21 23 23 22 22 23 22 21 20 19 18 17 16 15 13 11 10 9 9 8 8 8 8 8 7 7 7 8 9 11 13 14 15 16 17 18 20 21 23 25 26 28 29 31 33 34 35 35 36 37 38 39 41 42 42 43 44 45 46 47 49 51 54 55 56 58 58 59 57 53 49 46 45 43 38 34 33 32 30 28
27 24 20 19 21 23 23 23 23 23 23 23 23 21 20 18 18 16 15 13 11 10 9 9 9 8 8 8 8 8 7 7 8 9 10 12 13 14 15 16 18 19 21 22 24 25 26 28 30 31 33 33 34 34 35 36 37 38 40 41 42 42 43 44 46 48 49 51 54 56 57 58 58 58 57 53 48 45 45 42 37 34 32 29 27
27 24 20 19 21 22 22 23 23 23 24 24 23 21 19 18 17 16 14 13 11 10 10 10 9 9 9 9 9 8 8 7 8 9 10 12 13 14 15 16 18 19 21 23 24 25 27 28 29 31 32 33 34 35 36 35 35 36 36 38 39 40 41 42 44 47 48 50 52 55 56 57 57 57 57 56 52 47 44 43 39 33 29 28 25
Wind_Direction
284 287 289 253 202 203 188 180 216 244 274 296 306 305 306 313 319 323 323 321 325 335 347 354 354 355 349 346 347 344 340 335 337 334 334 351 354 346 348 347 345 345 343 342 341 340 339 339 339 337 336 333 330 328 325 323 323 322 323 325 326 325 325 325 324 324 323 321 321 322 320 315 310 305 302 300 299 298 297 293 290 290 287 279 270
272 268 267 234 210 219 210 211 228 240 268 292 304 310 314 319 325 331 335 337 343 353 3 4 359 359 356 352 350 345 338 334 337 334 332 346 348 343 345 343 340 339 338 337 336 335 334 333 333 331 331 329 328 327 323 320 319 318 319 321 321 320 319 319 318 318 318 318 320 321 321 319 314 307 301 298 298 298 296 293 289 287 286 283 275
259 256 247 234 228 234 235 238 246 251 267 288 303 313 321 327 334 335 346 353 352 2 8 4 2 7 2 353 346 341 337 334 335 334 331 338 341 339 339 337 335 335 334 334 333 333 332 330 330 328 327 326 326 323 319 318 315 314 316 316 314 313 314 315 315 314 312 314 315 316 317 319 318 312 304 299 297 296 293 290 286 284 282 282 278
249 250 244 239 237 241 247 247 248 256 269 292 306 315 322 329 331 327 340 356 359 11 9 3 4 5 357 345 338 333 331 330 331 331 330 332 334 334 334 333 332 332 332 331 331 330 329 329 329 329 327 326 324 320 317 315 313 312 314 313 310 309 309 310 310 309 308 309 310 310 312 314 315 313 307 302 299 295 291 287 284 281 279 279 278
245 250 253 245 239 244 249 247 246 256 270 291 302 308 318 321 321 328 360 7 9 20 8 359 354 347 342 336 331 327 326 326 327 328 327 328 330 329 330 329 329 328 328 328 327 327 327 328 329 329 328 326 325 323 320 317 316 314 314 313 309 306 306 305 304 303 304 304 304 304 306 307 309 309 306 302 299 296 291 286 282 279 277 276 275
247 253 257 245 238 242 245 246 251 259 271 286 295 302 311 310 316 24 45 22 17 13 358 350 342 335 332 328 325 324 323 323 323 324 324 325 325 325 326 325 325 325 325 325 325 325 326 328 329 329 329 328 328 327 326 324 322 319 317 315 311 307 306 304 302 301 300 300 300 300 299 300 302 304 303 301 299 296 291 286 281 277 275 275 274
247 252 250 240 235 237 239 245 253 259 268 275 280 285 284 271 248 39 25 10 1 351 343 339 333 328 324 320 319 319 320 320 321 322 322 323 322 321 322 321 322 323 323 324 325 326 327 327 328 329 329 329 329 328 328 327 326 323 320 317 313 309 308 306 304 302 299 297 297 295 294 294 296 297 298 298 296 293 289 286 283 277 273 272 272
247 249 243 235 232 235 239 243 249 256 259 254 254 256 247 231 214 232 343 344 335 330 331 327 323 319 315 314 315 317 319 321 322 322 321 320 319 318 318 319 320 322 323 324 324 325 325 326 328 329 329 330 330 329 328 328 327 325 323 320 314 310 308 306 304 303 301 298 296 294 292 291 290 289 290 291 291 290 288 286 283 277 271 270 270
248 244 237 232 232 236 239 240 247 253 245 234 236 239 229 225 233 291 320 325 320 320 321 318 315 313 313 315 317 318 319 321 320 319 319 318 317 317 317 318 320 321 322 322 322 323 324 326 327 328 329 330 330 329 328 328 327 326 324 322 318 313 310 306 303 301 300 300 298 295 291 288 287 285 284 284 285 285 285 284 282 278 271 269 268
242 237 232 232 235 236 237 242 248 244 232 227 229 231 234 250 275 300 314 319 313 313 314 312 312 312 314 316 316 317 317 318 318 317 317 317 316 316 316 318 319 321 321 321 322 324 325 326 326 327 328 329 328 328 327 327 326 325 324 323 321 317 314 310 306 303 300 298 296 295 292 288 285 283 282 280 279 279 279 280 281 280 274 269 268
234 231 230 231 234 234 238 243 240 229 225 228 231 233 248 267 285 300 308 311 307 308 310 310 310 312 313 314 315 315 316 316 317 317 316 316 316 316 317 319 320 320 320 321 323 324 325 326 327 328 329 329 328 327 327 326 325 324 323 322 321 319 316 313 309 306 303 299 295 293 291 289 286 282 279 278 277 275 274 274 276 278 274 270 268
225 223 223 224 227 230 234 235 227 222 227 234 239 248 262 275 285 295 299 301 303 305 307 309 310 312 313 313 314 315 315 315 315 315 316 316 317 318 319 319 319 319 320 321 323 324 325 327 329 330 330 329 329 328 327 326 325 324 323 322 321 319 317 315 312 309 306 302 299 295 291 288 287 283 278 275 274 272 271 271 271 272 272 271 269
215 215 215 215 221 228 229 227 224 223 227 234 246 257 267 277 284 289 294 298 301 302 304 307 308 310 312 313 315 315 315 314 315 316 317 318 319 319 319 318 319 319 320 322 323 324 326 328 329 329 329 329 329 328 327 326 325 324 322 321 319 318 317 315 313 310 307 304 301 298 294 289 286 284 280 276 272 271 270 268 267 267 268 269 269
214 213 214 215 224 231 227 224 224 225 228 237 249 258 267 277 285 290 295 299 301 303 304 306 307 308 311 313 314 314 314 315 316 318 319 320 319 319 318 319 320 321 322 323 324 325 326 327 328 328 328 328 328 327 326 325 324 323 321 320 319 317 316 314 312 310 308 305 302 299 297 293 289 285 282 278 274 271 269 267 265 264 263 264 265
214 215 216 221 230 232 227 223 223 225 231 242 250 262 273 280 287 292 296 299 301 303 305 306 309 310 312 314 313 313 315 316 318 320 319 319 318 317 318 319 321 322 323 324 325 325 326 327 328 328 328 328 327 326 324 324 323 323 322 321 320 318 317 315 313 311 309 306 303 300 297 295 292 288 283 280 276 273 270 267 265 263 261 260 260
210 215 217 224 231 231 229 226 225 227 233 244 254 265 275 281 288 294 298 301 302 304 305 307 310 313 316 318 317 316 317 319 319 318 317 316 316 317 319 320 321 323 324 325 326 326 327 328 329 329 328 327 326 325 324 324 324 324 323 322 322 320 319 317 316 314 312 309 306 303 299 295 293 290 286 282 279 275 271 268 265 263 261 259 258
207 213 218 224 227 225 224 223 223 228 235 244 253 262 272 280 289 296 300 302 303 304 306 308 311 313 316 319 319 317 317 319 317 315 315 315 317 318 319 321 322 324 325 326 327 328 328 329 329 329 329 328 328 327 327 327 327 326 326 325 324 322 321 319 317 314 312 310 308 305 302 298 293 291 288 284 281 277 273 269 267 264 261 259 257
209 215 221 221 220 217 216 218 220 226 234 243 254 265 276 284 291 297 300 302 303 305 308 311 312 313 315 317 317 316 315 315 314 315 316 316 318 319 320 322 323 325 326 327 328 329 329 330 330 330 331 331 331 331 331 330 330 329 328 327 326 324 322 320 317 315 312 310 308 305 303 300 296 292 289 285 282 279 275 270 268 265 263 260 256
215 219 221 216 213 213 212 215 219 227 240 253 266 276 282 288 293 297 299 301 304 307 309 310 312 313 315 316 315 313 312 313 314 315 316 318 320 321 322 323 325 327 327 328 329 330 331 331 332 333 333 334 335 335 335 333 332 332 331 329 328 325 323 321 319 316 314 311 309 306 303 300 297 293 290 287 283 280 277 273 269 266 264 261 257
219 222 220 215 212 212 213 218 227 240 255 270 279 283 287 291 295 298 300 302 303 305 306 308 311 313 314 313 312 311 311 312 314 316 319 321 321 322 323 325 326 327 328 330 331 331 332 333 335 336 337 338 338 338 337 336 336 335 333 332 330 328 326 324 322 318 316 313 310 308 304 301 297 293 290 287 284 280 277 274 271 267 265 262 259
221 223 220 217 217 217 221 230 241 256 268 279 284 286 290 294 298 300 300 299 299 300 302 306 309 310 310 309 309 310 312 314 317 320 322 322 323 324 325 325 325 327 329 331 331 332 334 337 338 339 340 339 340 340 340 339 339 337 335 334 332 330 328 325 323 321 318 315 312 309 306 302 299 295 290 286 283 280 276 273 271 267 265 263 260
222 225 222 223 225 227 234 244 255 267 276 284 287 289 293 297 299 297 295 293 293 298 302 305 306 306 307 308 310 312 315 318 321 322 322 323 324 324 325 326 328 329 330 331 333 335 337 339 341 341 340 341 342 342 342 341 340 338 337 335 333 331 329 327 324 322 319 317 314 311 307 303 299 295 291 287 283 279 275 272 270 267 264 261 259
224 227 227 231 233 237 245 253 264 274 281 286 288 291 294 295 294 290 290 292 296 301 304 305 305 306 307 310 313 316 319 320 320 321 323 323 323 323 325 327 329 329 330 332 335 337 339 342 342 342 342 343 343 343 343 342 341 340 338 336 334 332 330 327 325 323 321 319 316 313 309 304 299 294 290 286 282 279 275 270 268 267 264 260 258
228 230 233 236 239 245 252 261 271 278 284 288 288 289 291 290 289 290 293 297 300 303 304 305 307 308 311 315 317 320 320 320 321 322 323 323 323 324 326 327 328 329 331 334 336 338 342 344 343 343 343 343 343 344 343 342 342 341 338 336 334 332 329 327 327 325 323 321 318 315 311 306 301 295 290 285 281 278 274 270 266 264 263 260 257
231 234 237 241 246 253 260 268 275 280 284 285 284 284 287 288 290 293 295 298 301 304 306 308 310 313 316 319 320 321 321 322 323 323 323 324 325 326 326 327 329 331 333 335 338 339 342 344 345 345 344 344 344 343 343 343 342 340 338 337 335 333 332 331 329 327 325 322 319 316 313 310 305 300 294 288 282 278 274 270 266 262 261 260 257
235 237 241 249 255 261 266 271 276 280 281 279 278 282 286 287 288 290 293 298 302 306 309 311 314 318 320 321 322 323 323 324 323 323 324 325 326 326 326 326 328 331 334 335 339 341 341 345 348 346 344 344 344 343 343 343 342 340 340 339 338 337 336 334 332 330 327 323 319 317 315 313 310 306 301 294 288 282 276 272 267 262 259 258 257
238 239 246 255 261 264 267 272 276 276 275 274 277 281 280 279 281 286 292 299 303 306 309 313 317 319 321 322 323 324 324 323 323 324 325 327 327 327 327 328 329 332 336 337 339 342 345 347 347 347 346 345 343 343 344 344 343 343 343 342 342 340 338 337 336 332 327 322 319 318 316 315 313 311 307 302 296 289 283 278 272 266 259 256 256
239 242 250 256 259 262 266 271 272 270 270 272 275 273 271 272 277 285 294 299 302 305 309 314 317 319 321 322 324 324 323 322 323 325 327 328 328 329 331 331 329 331 337 341 340 341 346 348 347 348 347 344 343 345 346 346 345 346 345 344 343 342 342 342 339 333 327 323 321 318 316 314 313 312 310 307 302 297 291 286 280 274 265 257 254
241 244 249 252 256 262 267 267 266 266 269 270 268 265 265 270 276 285 293 296 300 304 309 312 315 318 321 323 323 322 322 323 325 328 329 329 330 332 332 329 328 331 336 342 343 341 343 346 347 347 346 345 346 348 348 348 349 349 347 345 345 345 346 345 341 336 332 329 326 321 317 314 311 309 309 308 307 303 299 294 289 283 274 263 256
239 241 245 251 258 264 266 265 264 267 268 264 261 260 263 269 275 284 289 293 297 301 305 310 314 318 322 323 322 321 322 324 326 328 329 331 333 333 331 330 332 336 337 340 344 345 343 344 345 347 347 348 350 349 350 353 355 351 348 346 346 347 348 347 346 344 340 335 330 325 320 315 311 309 308 308 308 307 304 301 296 291 283 271 261
236 240 247 254 262 266 266 266 266 265 262 258 258 259 263 268 274 282 287 290 293 297 304 311 315 320 322 321 320 321 323 325 327 329 330 333 334 332 332 335 338 340 341 342 344 345 344 344 345 349 352 353 352 351 354 357 356 353 350 348 348 348 349 350 352 350 345 339 332 324 319 315 312 310 309 308 308 307 306 304 300 297 292 282 268
237 242 251 258 264 267 267 267 264 260 257 256 258 259 263 269 276 282 285 285 290 297 305 311 316 319 320 320 320 321 324 327 328 329 331 334 335 333 335 338 341 342 343 344 344 345 345 345 347 351 354 355 354 353 355 356 356 355 353 349 349 350 351 353 355 353 349 344 336 327 321 316 312 309 307 306 305 305 304 303 301 298 295 290 280
239 247 257 262 265 267 267 266 261 258 257 257 258 260 264 271 277 281 281 283 290 298 304 310 316 318 319 319 320 321 325 327 328 329 332 335 335 336 338 340 342 343 344 345 346 345 343 345 349 353 354 353 353 353 353 354 356 357 354 351 352 353 354 355 356 355 352 348 343 334 327 322 318 313 309 305 301 300 298 298 298 296 294 292 286
245 254 262 265 267 268 267 266 262 260 260 258 260 263 267 273 276 278 280 283 289 296 303 310 315 316 318 319 319 323 326 326 327 330 333 336 337 339 341 341 342 342 343 345 346 344 342 344 350 354 354 351 351 352 352 352 355 357 355 354 355 356 355 355 357 357 355 352 348 341 336 333 329 324 320 313 305 299 294 291 290 290 290 290 287
254 261 266 268 270 271 270 268 265 263 261 261 263 265 269 273 275 277 279 283 288 295 302 309 313 317 318 318 320 324 324 325 328 332 336 337 338 340 341 341 342 342 343 344 344 343 344 346 349 351 352 351 350 350 350 351 353 355 356 356 357 357 356 354 357 359 357 355 353 349 345 341 336 331 328 323 316 307 298 290 286 284 284 284 284
263 268 271 272 275 275 273 270 266 264 263 262 264 266 269 271 273 275 278 281 286 293 301 308 312 315 315 316 320 321 322 324 329 334 338 338 338 339 341 341 341 341 343 344 343 343 345 347 347 347 348 350 351 349 350 351 352 354 357 358 357 357 356 355 356 359 359 358 357 354 350 346 340 333 330 327 322 315 307 298 290 284 282 281 280
267 273 275 276 277 277 275 271 267 264 262 262 263 265 268 270 272 274 276 279 285 292 299 305 309 312 312 314 318 318 320 326 331 336 337 338 338 339 340 341 340 341 343 343 343 344 345 345 345 345 346 349 351 351 351 352 351 352 356 359 358 357 357 355 355 358 360 1 360 356 352 350 344 337 331 326 322 318 314 308 300 291 286 283 280
268 274 276 276 276 274 272 269 265 263 261 261 262 264 267 269 270 272 274 278 285 290 296 300 305 308 308 312 315 317 321 327 332 336 336 337 338 338 340 340 339 341 342 342 343 344 344 344 344 344 346 348 351 352 352 351 352 353 355 358 358 358 358 356 354 356 359 2 2 358 355 354 352 345 335 327 320 316 313 311 308 301 293 287 283
267 273 275 275 274 271 269 265 262 261 260 260 262 263 266 268 268 270 272 277 283 287 291 296 300 303 304 309 313 316 322 328 331 334 334 336 337 338 337 337 338 340 341 341 342 342 343 345 345 346 347 348 351 353 352 351 353 355 355 356 357 358 359 357 354 354 357 0 2 1 357 357 358 353 342 330 321 313 310 308 308 307 303 297 289
266 272 273 273 272 269 266 263 261 260 259 260 262 263 264 265 266 268 271 276 280 283 288 292 295 296 298 304 311 316 321 325 328 330 333 335 336 336 335 334 338 340 340 341 343 343 344 345 347 349 349 350 352 352 352 352 353 355 356 355 355 357 358 356 354 353 355 359 2 2 359 358 360 359 351 339 327 316 310 307 306 305 304 302 297
266 270 272 272 270 267 265 262 260 259 258 259 261 261 262 263 263 266 269 272 276 279 284 287 287 288 292 298 308 314 317 320 323 327 331 333 334 333 333 334 337 340 341 343 345 346 346 346 349 351 351 352 353 352 352 353 353 354 354 354 355 356 355 354 355 353 353 357 1 1 360 358 359 360 356 348 335 321 313 309 306 304 302 299 297
266 269 270 270 268 267 265 262 260 259 258 258 259 259 260 260 260 263 266 269 272 275 278 279 279 281 286 294 304 309 312 313 318 324 327 330 330 330 332 334 337 340 343 345 346 347 348 348 349 351 353 354 353 351 352 352 352 352 352 353 355 355 352 352 354 354 353 356 359 0 0 358 358 359 357 352 343 329 318 311 307 304 301 297 294
266 269 269 269 268 266 264 262 260 258 258 257 257 257 257 256 257 259 262 264 268 271 272 273 273 275 282 292 299 303 307 310 315 322 325 328 329 329 331 335 338 342 344 346 348 349 351 351 350 351 353 354 352 350 350 350 351 351 351 352 353 352 351 352 353 353 353 355 357 359 360 358 358 358 357 353 348 339 328 317 308 304 301 299 296
266 268 269 269 269 267 264 262 259 258 257 257 256 255 253 252 253 254 257 260 262 265 266 266 267 269 277 289 296 301 305 310 317 323 326 329 331 331 334 337 341 344 346 348 349 350 352 352 351 352 353 352 350 349 349 349 350 349 350 351 350 349 352 353 352 352 354 355 356 358 359 358 357 358 357 355 351 346 340 331 322 315 309 305 301
266 268 271 272 271 269 265 262 259 257 257 256 254 253 250 248 249 250 253 255 256 259 260 259 261 265 275 285 293 301 306 311 318 324 329 332 333 334 336 339 343 346 348 349 350 350 351 352 353 353 351 350 349 349 348 349 349 348 348 348 346 348 352 353 352 353 354 355 355 356 358 358 357 358 359 356 352 350 346 341 336 330 322 314 306
266 269 273 276 275 271 266 262 260 258 256 255 252 250 247 245 244 245 248 250 251 253 254 254 256 262 272 282 289 297 303 309 316 324 330 333 334 336 338 340 344 346 348 349 349 349 351 352 353 352 350 349 349 348 349 348 348 347 346 344 344 348 352 353 353 354 355 355 355 356 357 356 356 359 359 356 355 354 350 345 341 337 332 325 317
266 272 275 276 276 274 268 263 260 258 256 253 250 247 244 242 243 244 244 244 246 248 248 248 251 256 265 274 282 290 296 304 314 322 330 333 334 337 339 342 345 346 347 348 348 349 350 351 352 352 350 350 349 349 348 347 346 346 344 343 345 348 349 351 354 355 355 356 357 357 356 356 356 358 359 357 356 356 353 348 344 340 334 329 323
269 274 273 272 276 277 270 263 259 257 254 251 249 246 243 242 244 244 242 239 237 240 241 241 243 248 258 267 274 281 289 299 311 321 328 332 333 336 339 342 344 344 346 347 348 349 350 351 352 352 351 350 350 349 347 345 344 344 342 343 345 347 348 351 354 356 356 357 358 358 357 356 356 356 358 1 359 356 355 351 344 340 335 330 326
270 270 266 268 275 273 266 259 256 254 252 250 249 246 243 242 242 242 240 237 231 229 233 235 237 242 252 262 268 273 282 292 306 319 326 329 331 334 337 340 342 342 344 344 345 347 349 350 351 351 351 350 349 348 347 345 344 343 343 345 346 347 349 351 353 357 358 357 358 359 358 358 358 355 357 2 3 358 355 351 343 338 335 332 329
267 261 258 267 273 268 260 256 255 254 252 250 249 247 245 245 246 246 246 244 237 232 232 233 234 239 248 255 261 266 274 287 302 316 322 325 328 331 334 337 339 339 340 341 343 346 348 350 351 350 350 350 349 349 349 347 347 345 345 347 346 347 349 351 353 356 357 357 358 359 359 359 360 357 356 360 3 1 356 352 344 336 330 327 327
261 253 255 265 268 263 258 256 255 254 252 251 250 249 248 249 251 253 253 252 248 245 242 238 234 236 243 249 255 261 270 285 300 312 319 321 325 328 331 334 335 337 339 341 343 346 347 349 350 350 350 351 351 352 351 350 349 348 348 348 346 346 348 351 354 356 356 357 359 0 1 1 0 0 359 358 359 0 359 356 349 338 327 321 322
Height
3194 3194 3194 3194 3194 3194 3194 3194 3194 3194 3194 3194 3194 3194 3194 3193 3193 3193 3192 3192 3192 3191 3190 3190 3190 3189 3189 3189 3189 3188 3188 3187 3186 3185 3183 3182 3182 3181 3179 3178 3177 3176 3175 3173 3172 3171 3170 3168 3167 3166 3165 3163 3162 3160 3159 3157 3156 3154 3153 3151 3150 3149 3148 3147 3145 3144 3143 3141 3141 3140 3139 3137 3136 3135 3134 3134 3133 3132 3132 3131 3130 3130 3129 3128 3128
3193 3194 3194 3194 3193 3193 3193 3193 3193 3193 3193 3193 3193 3193 3193 3192 3192 3192 3192 3191 3191 3191 3190 3190 3189 3189 3188 3188 3188 3188 3187 3186 3186 3184 3183 3182 3181 3180 3178 3177 3176 3175 3174 3173 3171 3170 3169 3168 3166 3165 3163 3162 3161 3159 3157 3155 3154 3152 3151 3150 3149 3148 3146 3145 3144 3143 3141 3140 3140 3139 3137 3136 3135 3134 3133 3132 3131 3131 3130 3130 3129 3128 3127 3127 3126
3193 3193 3193 3193 3193 3192 3192 3192 3192 3192 3192 3192 3192 3192 3192 3192 3191 3191 3191 3190 3190 3190 3189 3189 3188 3188 3188 3188 3187 3187 3187 3186 3185 3184 3182 3181 3180 3179 3178 3177 3175 3174 3173 3171 3170 3169 3168 3167 3165 3164 3162 3161 3159 3158 3156 3154 3152 3150 3150 3149 3147 3146 3144 3143 3142 3141 3140 3139 3138 3137 3136 3135 3133 3132 3131 3130 3129 3129 3128 3128 3127 3126 3126 3125 3125
3192 3192 3192 3192 3192 3192 3192 3192 3192 3191 3191 3191 3191 3191 3191 3191 3191 3190 3190 3190 3189 3189 3189 3188 3188 3188 3188 3187 3187 3186 3186 3185 3184 3183 3181 3180 3179 3178 3177 3175 3174 3173 3172 3170 3169 3168 3167 3165 3164 3162 3160 3159 3157 3156 3154 3152 3150 3149 3148 3147 3145 3143 3142 3141 3140 3139 3138 3137 3137 3136 3134 3133 3132 3131 3129 3128 3127 3126 3126 3125 3125 3124 3124 3123 3123
3191 3191 3191 3191 3191 3191 3191 3191 3191 3191 3191 3191 3191 3190 3190 3190 3190 3190 3189 3189 3189 3189 3188 3188 3187 3187 3187 3187 3186 3186 3185 3184 3182 3181 3180 3179 3178 3176 3175 3174 3173 3172 3170 3169 3167 3166 3165 3163 3162 3160 3158 3156 3155 3153 3152 3150 3148 3147 3146 3145 3143 3141 3140 3139 3138 3137 3136 3135 3134 3134 3133 3131 3130 3129 3128 3126 3125 3124 3124 3123 3123 3122 3122 3121 3121
3190 3190 3190 3190 3190 3190 3190 3190 3190 3190 3190 3190 3190 3189 3189 3190 3189 3189 3189 3189 3188 3188 3188 3187 3187 3187 3186 3186 3185 3184 3183 3182 3181 3180 3178 3177 3176 3175 3174 3173 3172 3170 3169 3167 3165 3164 3162 3161 3159 3158 3156 3155 3153 3151 3149 3148 3147 3145 3144 3143 3141 3139 3138 3137 3135 3135 3134 3133 3132 3131 3130 3129 3128 3127 3126 3125 3124 3123 3122 3121 3120 3120 3119 3119 3119
3189 3189 3190 3190 3190 3189 3189 3189 3189 3189 3189 3189 3189 3189 3189 3189 3189 3188 3188 3188 3187 3187 3187 3186 3186 3185 3185 3185 3184 3183 3182 3181 3179 3178 3177 3176 3175 3174 3173 3172 3170 3168 3166 3165 3163 3161 3160 3159 3157 3156 3154 3153 3151 3149 3148 3146 3145 3143 3142 3141 3139 3137 3136 3135 3133 3132 3131 3130 3129 3129 3128 3127 3126 3125 3124 3123 3122 3121 3120 3119 3118 3117 3117 3117 3117
3188 3189 3189 3189 3189 3189 3189 3189 3188 3189 3188 3188 3188 3188 3189 3188 3188 3188 3187 3187 3187 3186 3186 3185 3185 3184 3184 3183 3182 3181 3180 3179 3178 3177 3176 3175 3174 3173 3171 3170 3168 3166 3164 3163 3161 3160 3158 3157 3155 3154 3152 3151 3149 3147 3146 3144 3143 3141 3140 3139 3137 3136 3134 3133 3131 3130 3129 3127 3126 3126 3125 3125 3124 3123 3122 3121 3120 3118 3117 3117 3115 3114 3114 3114 3114
3187 3188 3188 3188 3188 3188 3188 3188 3188 3188 3188 3188 3188 3188 3188 3187 3187 3187 3186 3186 3186 3185 3185 3184 3184 3183 3182 3181 3180 3179 3178 3177 3176 3175 3175 3174 3172 3171 3170 3168 3166 3164 3162 3161 3159 3158 3156 3155 3153 3151 3150 3148 3147 3145 3144 3142 3140 3139 3137 3136 3135 3134 3132 3131 3129 3128 3126 3125 3124 3123 3122 3122 3121 3120 3119 3118 3117 3116 3115 3114 3112 3112 3111 3111 3111
3186 3187 3187 3187 3187 3187 3187 3187 3187 3187 3187 3187 3187 3187 3186 3186 3186 3186 3185 3185 3185 3184 3184 3183 3182 3182 3181 3179 3178 3177 3176 3176 3175 3174 3173 3172 3171 3169 3168 3166 3164 3162 3161 3159 3157 3156 3154 3152 3151 3149 3148 3146 3145 3143 3142 3140 3138 3137 3135 3134 3132 3131 3130 3128 3127 3125 3124 3123 3121 3120 3119 3118 3118 3117 3116 3115 3114 3113 3112 3111 3110 3110 3109 3108 3108
3185 3186 3186 3186 3186 3186 3187 3187 3186 3186 3186 3186 3186 3186 3185 3185 3185 3185 3185 3184 3183 3183 3182 3182 3181 3180 3179 3178 3177 3176 3175 3174 3173 3172 3171 3170 3169 3168 3166 3164 3163 3161 3159 3157 3155 3154 3152 3150 3148 3147 3145 3144 3143 3141 3140 3138 3136 3134 3133 3131 3129 3128 3127 3125 3124 3123 3121 3120 3119 3117 3116 3115 3114 3114 3113 3111 3110 3109 3109 3108 3108 3107 3107 3106 3106
3184 3185 3185 3185 3185 3186 3186 3185 3185 3185 3185 3185 3185 3185 3185 3184 3184 3184 3184 3183 3182 3182 3181 3180 3179 3178 3177 3176 3175 3174 3173 3172 3171 3171 3169 3168 3167 3165 3164 3162 3161 3159 3158 3156 3154 3152 3150 3148 3146 3145 3143 3142 3140 3139 3137 3136 3134 3132 3130 3128 3126 3125 3123 3122 3121 3120 3119 3117 3116 3114 3113 3111 3111 3110 3109 3108 3107 3106 3105 3105 3104 3104 3104 3103 3103
3183 3184 3184 3185 3185 3185 3185 3184 3184 3184 3184 3184 3184 3184 3184 3183 3183 3183 3183 3182 3181 3181 3180 3179 3178 3176 3175 3174 3173 3172 3171 3170 3170 3169 3167 3166 3165 3163 3162 3161 3159 3158 3156 3154 3152 3151 3149 3147 3145 3143 3141 3140 3138 3136 3135 3133 3131 3130 3128 3126 3124 3122 3120 3119 3117 3116 3115 3114 3113 3111 3110 3108 3107 3106 3105 3104 3103 3102 3102 3101 3101 3101 3100 3100 3100
3182 3183 3183 3184 3184 3184 3184 3183 3183 3183 3183 3183 3183 3183 3183 3182 3182 3182 3182 3181 3180 3179 3178 3177 3176 3175 3174 3173 3172 3171 3170 3169 3168 3167 3165 3164 3163 3162 3160 3159 3157 3156 3154 3152 3151 3149 3148 3146 3144 3142 3140 3138 3136 3134 3132 3131 3129 3127 3125 3124 3122 3119 3118 3116 3114 3113 3112 3111 3110 3108 3106 3105 3104 3103 3102 3100 3099 3098 3098 3097 3097 3097 3097 3097 3097
3181 3182 3182 3182 3183 3182 3182 3182 3182 3182 3182 3182 3182 3182 3182 3181 3181 3181 3180 3180 3179 3178 3177 3175 3174 3173 3172 3171 3170 3169 3168 3167 3166 3165 3164 3163 3161 3160 3159 3157 3155 3154 3152 3151 3149 3148 3146 3144 3142 3140 3138 3136 3134 3132 3130 3128 3126 3124 3123 3121 3119 3117 3115 3113 3111 3110 3108 3107 3106 3105 3103 3101 3100 3099 3098 3097 3096 3095 3094 3093 3093 3093 3093 3093 3093
3180 3181 3181 3181 3181 3181 3181 3181 3181 3181 3181 3181 3181 3181 3181 3180 3180 3179 3179 3178 3177 3176 3175 3174 3173 3172 3171 3170 3168 3167 3166 3165 3164 3164 3163 3161 3160 3158 3157 3155 3153 3152 3150 3149 3147 3146 3144 3142 3140 3138 3136 3134 3132 3130 3128 3126 3124 3122 3120 3118 3117 3115 3113 3111 3109 3107 3105 3103 3102 3100 3099 3098 3096 3095 3094 3093 3092 3091 3090 3089 3088 3088 3088 3089 3090
3179 3180 3180 3180 3180 3180 3180 3180 3180 3180 3180 3180 3180 3180 3180 3179 3179 3178 3177 3176 3175 3174 3173 3172 3172 3171 3170 3169 3168 3166 3165 3164 3163 3162 3161 3160 3159 3157 3155 3154 3152 3150 3149 3147 3145 3143 3142 3140 3138 3136 3134 3132 3130 3128 3126 3124 3122 3120 3118 3116 3114 3112 3110 3108 3106 3104 3102 3100 3098 3096 3095 3094 3092 3091 3089 3089 3088 3087 3086 3085 3084 3084 3084 3085 3086
3178 3178 3179 3179 3179 3179 3179 3179 3180 3180 3180 3180 3179 3179 3179 3178 3177 3176 3175 3174 3173 3172 3171 3170 3170 3169 3168 3168 3167 3165 3164 3163 3162 3161 3160 3159 3157 3155 3154 3152 3151 3149 3147 3145 3143 3141 3139 3137 3136 3134 3132 3130 3128 3126 3124 3121 3119 3118 3116 3114 3111 3109 3107 3105 3103 3101 3099 3097 3095 3093 3091 3090 3088 3087 3085 3084 3083 3083 3082 3081 3080 3079 3079 3080 3081
3177 3177 3177 3177 3178 3178 3178 3179 3179 3179 3179 3178 3178 3178 3177 3176 3175 3174 3173 3172 3171 3170 3169 3169 3168 3167 3167 3166 3165 3164 3163 3162 3161 3159 3158 3157 3155 3154 3152 3150 3149 3147 3145 3144 3142 3140 3138 3136 3134 3132 3130 3128 3125 3123 3121 3119 3117 3114 3112 3110 3108 3106 3104 3102 3100 3098 3096 3093 3092 3090 3088 3086 3084 3082 3081 3079 3079 3078 3077 3076 3075 3075 3074 3075 3076
3175 3176 3176 3176 3177 3177 3177 3177 3177 3177 3177 3177 3177 3176 3175 3175 3174 3173 3172 3171 3170 3169 3168 3167 3167 3166 3165 3165 3164 3163 3162 3161 3159 3158 3156 3155 3154 3152 3150 3148 3147 3145 3144 3142 3140 3138 3136 3134 3132 3129 3127 3125 3123 3121 3119 3116 3114 3111 3109 3107 3104 3102 3100 3098 3096 3094 3092 3090 3088 3086 3083 3081 3080 3078 3076 3075 3074 3073 3072 3072 3071 3070 3070 3070 3071
3174 3174 3175 3175 3176 3176 3176 3176 3176 3176 3176 3175 3175 3174 3174 3173 3172 3171 3170 3170 3169 3168 3167 3167 3166 3165 3164 3164 3163 3162 3161 3159 3158 3156 3155 3153 3151 3150 3148 3147 3145 3144 3142 3140 3138 3136 3134 3132 3130 3128 3125 3123 3121 3119 3117 3114 3112 3109 3106 3103 3101 3098 3096 3094 3092 3090 3087 3085 3083 3081 3079 3077 3075 3073 3071 3070 3068 3068 3067 3066 3066 3065 3065 3065 3065
3172 3173 3173 3174 3174 3174 3175 3175 3174 3174 3174 3173 3173 3172 3172 3171 3170 3170 3169 3169 3168 3167 3166 3166 3165 3164 3163 3163 3162 3160 3159 3158 3156 3155 3153 3151 3149 3148 3146 3145 3143 3142 3140 3138 3136 3134 3133 3131 3128 3126 3124 3122 3119 3117 3115 3112 3110 3107 3104 3101 3097 3094 3092 3089 3087 3085 3082 3080 3078 3076 3074 3072 3070 3067 3065 3064 3063 3062 3061 3061 3060 3060 3060 3060 3060
3171 3171 3172 3172 3173 3173 3173 3173 3173 3172 3172 3172 3171 3171 3170 3169 3169 3168 3168 3167 3166 3166 3165 3165 3164 3163 3162 3161 3160 3159 3158 3157 3155 3154 3152 3151 3149 3147 3145 3144 3142 3141 3139 3137 3135 3133 3132 3130 3127 3125 3123 3120 3118 3116 3113 3111 3108 3105 3102 3099 3096 3092 3089 3086 3083 3080 3077 3075 3072 3070 3068 3066 3064 3061 3059 3058 3056 3055 3055 3055 3054 3054 3054 3055 3055
3169 3170 3170 3171 3171 3171 3171 3171 3171 3170 3170 3170 3169 3169 3168 3168 3167 3166 3166 3165 3165 3165 3164 3163 3162 3162 3161 3160 3159 3158 3157 3155 3154 3153 3151 3150 3148 3146 3145 3143 3141 3140 3138 3136 3134 3133 3131 3129 3127 3124 3122 3119 3117 3115 3112 3109 3106 3103 3101 3098 3094 3091 3087 3083 3079 3076 3072 3069 3066 3064 3061 3059 3057 3055 3053 3051 3050 3049 3048 3048 3048 3048 3048 3049 3050
3168 3168 3169 3169 3170 3170 3169 3169 3169 3168 3168 3168 3167 3167 3166 3166 3165 3165 3164 3164 3163 3163 3162 3162 3161 3160 3159 3158 3157 3156 3155 3154 3153 3152 3150 3149 3148 3146 3144 3142 3140 3138 3137 3135 3133 3131 3130 3128 3126 3123 3121 3119 3116 3113 3111 3108 3105 3102 3099 3096 3092 3088 3084 3080 3077 3073 3069 3065 3061 3057 3054 3052 3050 3048 3046 3044 3043 3042 3041 3041 3042 3042 3043 3043 3044
3166 3167 3167 3167 3168 3167 3167 3167 3167 3166 3166 3166 3165 3165 3164 3164 3163 3163 3163 3162 3162 3161 3161 3160 3159 3159 3158 3157 3156 3155 3154 3153 3152 3151 3150 3148 3147 3145 3143 3141 3139 3137 3136 3134 3133 3130 3128 3127 3125 3123 3120 3118 3115 3112 3109 3107 3104 3100 3097 3093 3089 3085 3081 3078 3074 3069 3064 3060 3055 3051 3048 3045 3043 3041 3040 3038 3036 3035 3034 3034 3035 3036 3037 3038 3038
3165 3165 3165 3166 3166 3165 3165 3165 3165 3165 3165 3164 3163 3163 3162 3162 3162 3161 3161 3161 3160 3160 3159 3158 3158 3157 3156 3155 3154 3153 3152 3151 3151 3150 3148 3147 3145 3144 3141 3139 3138 3136 3135 3133 3131 3130 3128 3126 3124 3122 3119 3116 3113 3111 3108 3105 3102 3098 3095 3091 3087 3084 3080 3075 3071 3066 3060 3055 3051 3047 3044 3040 3037 3035 3034 3032 3031 3029 3028 3028 3028 3029 3030 3031 3033
3163 3163 3164 3164 3164 3164 3163 3163 3163 3163 3163 3162 3161 3161 3161 3160 3160 3160 3160 3159 3159 3158 3158 3157 3156 3156 3155 3154 3153 3152 3151 3150 3149 3148 3147 3146 3144 3142 3141 3139 3137 3136 3134 3133 3130 3128 3127 3125 3123 3121 3119 3116 3113 3110 3107 3104 3101 3097 3093 3089 3086 3082 3078 3073 3068 3063 3057 3052 3047 3043 3040 3036 3033 3031 3029 3027 3026 3024 3023 3022 3022 3023 3024 3025 3027
3161 3162 3162 3162 3162 3162 3162 3162 3161 3161 3161 3160 3160 3159 3159 3159 3159 3158 3158 3158 3157 3157 3156 3156 3155 3154 3154 3153 3152 3151 3150 3149 3148 3147 3146 3144 3142 3141 3139 3138 3137 3135 3133 3132 3130 3128 3126 3124 3122 3120 3118 3116 3113 3110 3107 3103 3099 3096 3092 3088 3084 3080 3076 3072 3066 3060 3054 3048 3044 3040 3036 3032 3029 3026 3024 3022 3021 3020 3018 3017 3016 3016 3017 3019 3020
3160 3160 3160 3160 3160 3160 3160 3160 3159 3159 3159 3158 3158 3158 3158 3157 3157 3157 3157 3156 3156 3155 3155 3154 3154 3153 3152 3151 3150 3150 3149 3148 3147 3145 3144 3142 3141 3140 3138 3137 3136 3134 3132 3131 3129 3127 3125 3123 3121 3120 3117 3114 3111 3108 3105 3101 3098 3094 3090 3086 3082 3079 3075 3070 3064 3057 3051 3045 3040 3036 3032 3028 3024 3021 3019 3017 3016 3015 3014 3012 3011 3011 3011 3012 3013
3158 3158 3158 3158 3158 3158 3158 3158 3157 3157 3157 3157 3156 3156 3156 3156 3156 3156 3155 3155 3154 3154 3153 3153 3152 3151 3151 3150 3149 3148 3147 3146 3145 3144 3142 3141 3140 3139 3137 3136 3134 3133 3131 3129 3127 3126 3124 3122 3120 3118 3115 3112 3109 3105 3102 3099 3096 3093 3089 3084 3080 3077 3072 3067 3061 3055 3049 3043 3038 3034 3029 3025 3020 3017 3014 3012 3010 3009 3008 3007 3006 3006 3006 3006 3007
3156 3156 3156 3156 3156 3156 3156 3156 3156 3155 3155 3155 3155 3155 3155 3155 3154 3154 3154 3153 3153 3152 3152 3151 3150 3150 3149 3148 3148 3147 3146 3145 3143 3142 3141 3140 3139 3137 3136 3135 3133 3132 3130 3128 3125 3124 3122 3120 3118 3115 3112 3110 3107 3103 3100 3097 3094 3090 3086 3082 3078 3074 3069 3064 3059 3053 3047 3042 3037 3032 3027 3022 3018 3014 3011 3008 3005 3004 3003 3002 3001 3001 3000 3001 3002
3154 3155 3154 3155 3155 3155 3154 3154 3154 3154 3154 3154 3154 3154 3153 3153 3153 3153 3152 3152 3151 3151 3150 3150 3149 3148 3148 3147 3146 3145 3144 3143 3142 3141 3140 3138 3137 3136 3135 3133 3132 3130 3128 3127 3124 3122 3121 3119 3116 3113 3110 3107 3105 3101 3098 3095 3092 3088 3084 3080 3075 3071 3066 3061 3057 3052 3046 3040 3035 3029 3025 3020 3015 3011 3008 3004 3002 2999 2998 2996 2996 2995 2995 2995 2996
3153 3153 3153 3153 3153 3153 3153 3152 3152 3152 3152 3152 3152 3152 3151 3151 3151 3151 3151 3150 3150 3149 3149 3148 3147 3147 3146 3145 3144 3144 3143 3141 3140 3139 3138 3137 3135 3134 3133 3132 3130 3129 3127 3125 3123 3121 3120 3117 3114 3112 3109 3106 3103 3099 3096 3093 3089 3086 3082 3078 3073 3068 3063 3059 3055 3050 3044 3038 3032 3027 3021 3016 3011 3007 3004 3001 2998 2995 2994 2992 2991 2990 2990 2990 2991
3151 3151 3151 3151 3151 3151 3151 3151 3150 3151 3151 3150 3150 3150 3150 3150 3149 3149 3149 3149 3148 3148 3147 3146 3146 3145 3144 3144 3143 3142 3141 3140 3139 3137 3136 3135 3134 3133 3131 3130 3128 3127 3125 3123 3121 3120 3117 3115 3112 3110 3107 3104 3100 3097 3094 3090 3087 3084 3080 3075 3071 3066 3061 3056 3052 3048 3042 3037 3030 3023 3018 3013 3007 3003 2999 2996 2994 2991 2990 2988 2987 2986 2985 2985 2985
3149 3149 3149 3149 3149 3149 3149 3149 3149 3149 3149 3149 3149 3148 3148 3148 3148 3148 3148 3147 3147 3146 3145 3145 3144 3143 3142 3142 3141 3141 3140 3138 3137 3136 3135 3133 3132 3131 3130 3128 3126 3125 3123 3121 3120 3117 3115 3112 3110 3108 3105 3102 3099 3095 3091 3088 3085 3081 3078 3073 3068 3064 3059 3054 3049 3045 3041 3034 3027 3020 3016 3011 3005 3000 2995 2992 2989 2987 2986 2984 2983 2982 2982 2981 2981
3147 3147 3147 3147 3147 3147 3147 3147 3147 3147 3147 3147 3147 3147 3146 3146 3146 3146 3146 3146 3145 3144 3144 3143 3142 3141 3141 3140 3140 3139 3138 3137 3136 3134 3133 3132 3131 3130 3128 3127 3125 3123 3121 3120 3118 3116 3113 3111 3108 3105 3102 3099 3097 3093 3089 3086 3082 3078 3075 3071 3066 3061 3056 3051 3046 3042 3038 3032 3025 3019 3014 3009 3003 2997 2993 2989 2986 2984 2982 2981 2980 2979 2978 2978 2977
3145 3145 3145 3145 3145 3145 3145 3145 3145 3145 3145 3145 3145 3145 3145 3144 3144 3144 3144 3144 3143 3142 3142 3141 3140 3139 3139 3138 3138 3137 3137 3135 3134 3133 3132 3131 3130 3129 3127 3126 3124 3122 3120 3119 3117 3114 3112 3109 3106 3103 3100 3097 3094 3090 3087 3084 3080 3075 3071 3068 3064 3059 3054 3047 3042 3039 3036 3031 3025 3018 3011 3006 3000 2995 2990 2987 2984 2981 2979 2978 2977 2976 2975 2974 2973
3143 3143 3143 3143 3143 3143 3143 3143 3143 3143 3143 3143 3143 3143 3143 3142 3142 3142 3142 3142 3141 3141 3140 3139 3138 3138 3137 3137 3136 3136 3135 3134 3133 3132 3131 3130 3129 3128 3126 3125 3123 3121 3119 3117 3115 3113 3111 3108 3105 3102 3098 3095 3091 3088 3085 3082 3078 3074 3068 3063 3060 3056 3051 3046 3040 3035 3032 3029 3023 3017 3010 3005 2999 2994 2989 2985 2982 2979 2977 2975 2974 2973 2972 2971 2970
3141 3141 3141 3141 3141 3141 3141 3141 3141 3141 3141 3141 3141 3141 3141 3140 3140 3140 3140 3140 3140 3139 3138 3137 3136 3136 3135 3135 3135 3134 3133 3133 3132 3131 3130 3129 3128 3127 3125 3124 3122 3121 3119 3116 3114 3111 3109 3106 3103 3100 3096 3093 3089 3087 3084 3079 3075 3071 3066 3062 3057 3052 3048 3045 3039 3032 3028 3024 3020 3014 3009 3004 2999 2994 2988 2984 2980 2977 2974 2971 2970 2969 2968 2968 2967
3139 3139 3139 3139 3139 3139 3139 3139 3139 3139 3139 3139 3139 3139 3139 3138 3138 3138 3138 3138 3138 3137 3136 3135 3135 3134 3134 3134 3133 3133 3132 3132 3131 3130 3129 3128 3127 3126 3125 3123 3121 3119 3117 3115 3112 3110 3107 3104 3101 3098 3095 3091 3087 3084 3081 3077 3072 3068 3064 3060 3056 3050 3046 3043 3038 3031 3025 3020 3016 3011 3006 3001 2997 2992 2986 2982 2978 2974 2971 2969 2967 2965 2964 2964 2963
3137 3137 3137 3137 3137 3137 3137 3137 3137 3137 3137 3137 3137 3137 3137 3137 3136 3136 3136 3136 3136 3135 3134 3134 3133 3132 3132 3132 3132 3131 3131 3131 3130 3129 3128 3127 3126 3125 3124 3122 3120 3118 3116 3114 3111 3109 3106 3103 3100 3097 3093 3089 3085 3082 3078 3075 3071 3067 3063 3058 3053 3049 3045 3041 3036 3031 3024 3018 3014 3009 3004 2999 2994 2989 2984 2980 2976 2972 2969 2966 2964 2962 2960 2959 2959
3135 3135 3135 3135 3135 3134 3134 3134 3134 3134 3134 3135 3135 3135 3135 3135 3134 3134 3134 3134 3134 3133 3132 3132 3131 3131 3130 3130 3130 3130 3130 3129 3129 3128 3127 3126 3125 3124 3123 3121 3119 3117 3115 3113 3110 3108 3105 3102 3098 3095 3091 3087 3084 3081 3077 3073 3069 3065 3061 3056 3052 3049 3044 3038 3033 3029 3023 3017 3012 3008 3003 2997 2992 2988 2983 2977 2973 2970 2967 2964 2961 2958 2956 2955 2954
3132 3132 3132 3132 3132 3132 3132 3132 3132 3132 3132 3132 3133 3133 3133 3132 3132 3132 3132 3132 3132 3131 3131 3130 3129 3129 3128 3128 3128 3128 3128 3128 3127 3126 3125 3124 3123 3122 3121 3119 3117 3115 3113 3111 3109 3107 3104 3101 3097 3093 3089 3086 3083 3079 3075 3071 3067 3063 3059 3055 3052 3048 3044 3038 3033 3028 3022 3016 3010 3006 3001 2995 2991 2986 2981 2975 2970 2967 2964 2961 2958 2956 2953 2951 2949
3130 3130 3130 3130 3130 3130 3129 3129 3129 3129 3130 3130 3130 3130 3130 3130 3130 3129 3130 3130 3130 3129 3129 3128 3128 3127 3127 3127 3127 3127 3126 3126 3125 3124 3123 3122 3121 3120 3119 3117 3116 3114 3112 3110 3108 3105 3103 3099 3096 3092 3088 3085 3082 3078 3073 3069 3065 3060 3056 3053 3050 3047 3043 3039 3033 3027 3021 3015 3009 3004 2999 2994 2989 2984 2978 2973 2968 2963 2960 2957 2954 2952 2949 2947 2944
3127 3127 3127 3127 3127 3127 3127 3127 3127 3127 3127 3127 3128 3128 3128 3128 3127 3127 3127 3127 3128 3128 3127 3127 3127 3126 3126 3126 3126 3125 3125 3125 3124 3123 3122 3121 3120 3119 3117 3115 3114 3112 3110 3109 3106 3104 3101 3098 3095 3091 3088 3085 3080 3076 3072 3067 3063 3059 3055 3052 3048 3044 3042 3038 3034 3028 3022 3016 3009 3002 2997 2992 2987 2982 2977 2971 2966 2961 2957 2953 2950 2946 2943 2941 2938
3124 3125 3125 3125 3125 3125 3124 3124 3124 3125 3125 3125 3125 3125 3125 3125 3125 3125 3125 3125 3125 3126 3126 3126 3125 3125 3125 3125 3124 3124 3124 3123 3123 3122 3121 3120 3119 3118 3116 3115 3113 3111 3109 3108 3105 3103 3100 3097 3094 3090 3087 3083 3079 3075 3070 3066 3062 3059 3055 3051 3047 3043 3040 3038 3034 3028 3022 3016 3009 3003 2997 2991 2985 2981 2977 2971 2964 2960 2956 2951 2947 2944 2940 2937 2934
3121 3122 3122 3122 3122 3122 3122 3122 3122 3122 3122 3122 3122 3123 3123 3123 3123 3123 3123 3123 3123 3124 3124 3124 3124 3123 3123 3123 3123 3123 3123 3122 3122 3121 3120 3119 3118 3117 3116 3114 3112 3110 3109 3107 3105 3102 3099 3096 3093 3090 3086 3083 3079 3075 3071 3066 3062 3058 3055 3051 3047 3043 3039 3035 3032 3027 3021 3015 3010 3004 2998 2991 2984 2979 2975 2970 2964 2958 2955 2950 2946 2942 2939 2934 2930
3118 3119 3119 3119 3119 3119 3119 3119 3119 3119 3119 3119 3120 3120 3120 3121 3121 3121 3121 3121 3122 3122 3122 3122 3122 3122 3122 3122 3122 3122 3122 3121 3121 3120 3119 3118 3117 3116 3115 3113 3112 3110 3108 3106 3104 3102 3099 3096 3092 3089 3086 3083 3079 3076 3072 3067 3063 3058 3053 3049 3045 3041 3037 3033 3029 3026 3020 3014 3009 3004 2998 2991 2984 2977 2972 2969 2964 2957 2951 2947 2943 2939 2935 2931 2927
3115 3115 3115 3115 3115 3115 3115 3116 3116 3117 3117 3117 3117 3118 3118 3119 3119 3120 3120 3121 3121 3121 3121 3121 3121 3121 3121 3121 3121 3121 3121 3120 3120 3119 3118 3118 3117 3115 3114 3113 3111 3109 3108 3106 3104 3102 3099 3096 3093 3089 3086 3083 3079 3076 3072 3067 3063 3058 3053 3048 3044 3040 3037 3033 3028 3024 3021 3016 3010 3004 2998 2991 2985 2977 2969 2965 2964 2959 2951 2945 2939 2934 2930 2926 2923
3112 3112 3112 3112 3112 3112 3113 3113 3114 3114 3114 3115 3116 3116 3117 3117 3118 3119 3120 3120 3121 3121 3120 3120 3120 3120 3120 3120 3120 3120 3119 3119 3119 3118 3117 3117 3116 3115 3113 3112 3110 3109 3107 3105 3103 3100 3098 3095 3092 3089 3086 3082 3078 3074 3070 3066 3062 3058 3053 3049 3044 3040 3036 3033 3028 3024 3020 3015 3010 3004 2998 2991 2985 2978 2970 2962 2958 2956 2952 2945 2938 2931 2926 2922 2919